FW0527 Weather Reports


Display with metric or nautical units.
time (UTC)temp
F
wind
direction
speed
MPH
gust
MPH
rain 1hr
in
rain 24hr
in
rain mn
in
humidity
%
barometer
mb
20260510094515 52 111 0.0 0.0 0.00 0.00 0.00 28 1011.4
20260510093013 51 110 0.0 0.0 0.00 0.00 0.00 24 1011.4
20260510091513 51 113 0.0 1.0 0.00 0.00 0.00 26 1011.3
20260510090010 51 116 0.0 0.0 0.00 0.00 0.00 27 1011.4
20260510084508 51 117 0.0 0.0 0.00 0.00 0.00 31 1011.4
20260510083005 51 121 0.0 0.0 0.00 0.00 0.00 30 1011.6
20260510081507 50 116 0.0 0.0 0.00 0.00 0.00 29 1011.7
20260510080002 50 115 0.0 0.0 0.00 0.00 0.00 32 1011.7
20260510074601 50 107 0.0 0.0 0.00 0.00 0.00 34 1011.8
20260510073113 50 107 0.0 0.0 0.00 0.00 0.00 38 1011.8
20260510071604 51 105 0.0 0.0 0.00 0.00 0.00 44 1011.9
20260510070051 51 105 0.0 0.0 0.00 0.00 0.00 40 1011.9
20260510064559 51 111 0.0 0.0 0.00 0.00 0.00 46 1011.8
20260510063050 51 118 0.0 0.0 0.00 0.00 0.00 46 1011.8
20260510061551 51 121 0.0 0.0 0.00 0.00 0.00 49 1011.8
20260510060049 52 132 0.0 0.0 0.00 0.00 0.00 56 1011.6
20260510054548 53 132 0.0 0.0 0.00 0.00 0.00 58 1011.7
20260510053049 54 132 0.0 0.0 0.00 0.00 0.00 61 1011.8
20260510051550 54 132 0.0 0.0 0.00 0.00 0.00 63 1011.8
20260510050047 55 132 0.0 0.0 0.00 0.00 0.00 65 1011.7
20260510044550 56 137 0.0 0.0 0.00 0.00 0.00 67 1011.7
20260510043053 56 109 0.0 0.0 0.00 0.00 0.00 68 1011.8
20260510041549 57 302 0.0 0.0 0.00 0.00 0.00 66 1011.4
20260510040050 58 301 0.0 0.0 0.00 0.00 0.00 64 1011.3
20260510034547 60 301 0.0 0.0 0.00 0.00 0.00 61 1011.3
20260510033046 62 301 0.0 0.0 0.00 0.00 0.00 58 1011.0
20260510031553 63 301 0.0 0.0 0.00 0.00 0.00 56 1010.9
20260510030044 65 301 0.0 0.0 0.00 0.00 0.00 54 1010.7
20260510024544 67 301 0.0 0.0 0.00 0.00 0.00 53 1010.5
20260510023043 68 301 0.0 0.0 0.00 0.00 0.00 52 1010.6
20260510021543 69 301 0.0 0.0 0.00 0.00 0.00 51 1010.5
20260510020042 70 301 0.0 0.0 0.00 0.00 0.00 49 1010.5
20260510014542 71 304 0.0 0.0 0.00 0.00 0.00 48 1010.5
20260510013041 72 306 0.0 0.0 0.00 0.00 0.00 46 1010.4
20260510011541 73 327 0.0 0.0 0.00 0.00 0.00 45 1010.4
20260510010040 74 320 0.0 2.0 0.00 0.00 0.00 43 1010.4
20260510004541 76 263 0.0 1.0 0.00 0.00 0.00 42 1010.4
20260510003041 76 262 0.0 0.0 0.00 0.00 0.00 40 1010.4
20260510001539 77 279 0.0 0.0 0.00 0.00 0.00 40 1010.4
20260510000037 77 302 0.0 3.0 0.00 0.00 0.00 39 1010.4
20260509234538 78 217 0.0 0.0 0.00 0.00 0.00 37 1010.4
20260509233036 79 272 0.0 5.0 0.00 0.00 0.00 38 1010.5
20260509231535 80 331 0.0 2.0 0.00 0.00 0.00 37 1010.6
20260509230033 80 312 0.0 5.0 0.00 0.00 0.00 35 1010.5
20260509224535 81 304 0.0 0.0 0.00 0.00 0.00 35 1010.8
20260509223031 83 298 0.0 2.0 0.00 0.00 0.00 34 1010.8
20260509221529 84 311 0.0 9.0 0.00 0.00 0.00 29 1010.9
20260509220028 85 308 0.0 11.0 0.00 0.00 0.00 30 1011.0
20260509214524 86 335 0.0 12.0 0.00 0.00 0.00 29 1011.2
20260509213023 86 285 0.0 9.0 0.00 0.00 0.00 27 1011.3
20260509211521 86 296 0.0 11.0 0.00 0.00 0.00 27 1011.4
20260509210028 86 213 0.0 8.0 0.00 0.00 0.00 25 1011.4
20260509204516 87 313 0.0 10.0 0.00 0.00 0.00 21 1011.7
20260509203017 87 306 0.0 2.0 0.00 0.00 0.00 21 1011.9
20260509201513 87 298 0.0 10.0 0.00 0.00 0.00 21 1011.9
20260509200011 87 309 0.0 7.0 0.00 0.00 0.00 18 1012.0
20260509194509 87 307 0.0 6.0 0.00 0.00 0.00 18 1012.1
20260509193012 87 327 0.0 1.0 0.00 0.00 0.00 17 1012.1
20260509191508 87 310 0.0 4.0 0.00 0.00 0.00 18 1012.3
20260509190110 87 313 0.0 8.0 0.00 0.00 0.00 19 1012.3
20260509184505 87 302 0.0 8.0 0.00 0.00 0.00 19 1012.3
20260509183004 86 342 0.0 1.0 0.00 0.00 0.00 18 1012.4
20260509181502 86 306 0.0 1.0 0.00 0.00 0.00 18 1012.4
20260509180101 85 280 0.0 1.0 0.00 0.00 0.00 20 1012.3
20260509174555 83 300 0.0 0.0 0.00 0.00 0.00 18 1012.3
20260509173052 82 300 0.0 0.0 0.00 0.00 0.00 19 1012.3
20260509171548 80 304 0.0 0.0 0.00 0.00 0.00 21 1012.4
20260509170043 79 310 0.0 0.0 0.00 0.00 0.00 23 1012.5
20260509164547 76 300 0.0 0.0 0.00 0.00 0.00 19 1012.4
20260509163037 74 331 0.0 0.0 0.00 0.00 0.00 24 1012.3
20260509161530 71 308 0.0 0.0 0.00 0.00 0.00 33 1012.2
20260509160026 67 307 0.0 0.0 0.00 0.00 0.00 35 1012.1
20260509154521 62 307 0.0 0.0 0.00 0.00 0.00 48 1011.9
20260509153017 57 307 0.0 0.0 0.00 0.00 0.00 55 1012.1
20260509151513 54 307 0.0 0.0 0.00 0.00 0.00 62 1012.1
20260509150016 53 307 0.0 0.0 0.00 0.00 0.00 72 1012.0
20260509144505 52 307 0.0 0.0 0.00 0.00 0.00 75 1012.1
20260509143002 50 307 0.0 0.0 0.00 0.00 0.00 74 1012.2
20260509141600 49 307 0.0 0.0 0.00 0.00 0.00 73 1012.1
20260509140104 49 307 0.0 0.0 0.00 0.00 0.00 70 1011.9
20260509134626 48 307 0.0 0.0 0.00 0.00 0.00 70 1011.8
20260509133058 47 307 0.0 0.0 0.00 0.00 0.00 71 1011.7
20260509131555 47 307 0.0 0.0 0.00 0.00 0.00 69 1011.7
20260509130053 46 307 0.0 0.0 0.00 0.00 0.00 67 1011.7
20260509124552 46 307 0.0 0.0 0.00 0.00 0.00 64 1011.7
20260509123053 46 307 0.0 0.0 0.00 0.00 0.00 60 1011.7
20260509121552 46 307 0.0 0.0 0.00 0.00 0.00 56 1011.6
20260509120049 46 307 0.0 0.0 0.00 0.00 0.00 53 1011.6
20260509114548 46 307 0.0 0.0 0.00 0.00 0.00 52 1011.7
20260509113051 46 307 0.0 0.0 0.00 0.00 0.00 56 1011.7
20260509111546 46 307 0.0 0.0 0.00 0.00 0.00 57 1011.7
20260509110043 47 307 0.0 0.0 0.00 0.00 0.00 57 1011.7
20260509104540 47 307 0.0 0.0 0.00 0.00 0.00 60 1011.9
20260509103038 47 307 0.0 0.0 0.00 0.00 0.00 63 1011.9
20260509101548 47 307 0.0 0.0 0.00 0.00 0.00 63 1012.1
20260509100035 48 307 0.0 0.0 0.00 0.00 0.00 65 1012.1